Location: Spring Creek
(38.2870°N, 100.2160°W)
Time: 23:45:46
(UTC+00:00)

Cosmos 2297 Rocket - Pass Details

Date: 02 October 2021
Orbit: 841 x 842 km, 71.0° (Epoch: 18 October)

Event Time Altitude Azimuth Distance (km) Brightness Sun altitude
Rises 02:08:07 0° 349° (N) 3,403 5.7 -21.3°
Reaches altitude 10° 02:11:04 10° 3° (N) 2,465 4.7 -21.9°
Enters shadow 02:14:35 23° 41° (NE) 1,740 3.6 -22.5°
